Location: Robert Brownlee Observatory
(34.2308°N, 117.2089°W)
Time: 09:36:03
(UTC-07:00)

Cosmos 1943 - Visible Passes

Search period start: 20 April 2018 00:00
Search period end: 30 April 2018 00:00
Orbit: 832 x 851 km, 71.0° (Epoch: 19 April)

Date Brightness Start Highest point End Pass type
(mag) Time Alt. Az. Time Alt. Az. Time Alt. Az.
20 Apr 5.7 00:15:18 16° N 00:15:18 16° N 00:16:23 10° N visible
21 Apr 5.6 00:00:06 17° N 00:00:06 17° N 00:01:25 10° N visible
21 Apr 5.5 23:44:50 19° N 23:44:50 19° N 23:46:26 10° N visible
22 Apr 5.3 23:29:29 22° N 23:29:29 22° N 23:31:27 10° N visible
23 Apr 5.0 23:14:02 26° N 23:14:02 26° N 23:16:28 10° NNE visible
24 Apr 4.7 22:58:27 32° N 22:58:27 32° N 23:01:28 10° NNE visible
25 Apr 4.2 22:42:40 42° N 22:42:40 42° N 22:46:29 10° NNE visible
26 Apr 3.6 22:26:38 59° NNW 22:26:38 59° NNW 22:31:29 10° NNE visible
27 Apr 5.0 20:28:30 11° E 20:28:30 11° E 20:29:33 10° ENE visible
27 Apr 3.3 22:10:10 65° WSW 22:10:48 72° WNW 22:16:29 10° NNE visible
28 Apr 4.9 20:11:19 10° ESE 20:12:31 11° E 20:14:06 10° E visible
28 Apr 3.3 21:52:54 30° SSW 21:55:47 76° WNW 22:01:29 10° NNE visible
29 Apr 5.0 19:56:44 10° ESE 19:57:32 10° E 19:58:22 10° E visible
29 Apr 3.2 21:35:07 10° SSW 21:40:45 80° WNW 21:46:28 10° NNE visible
29 Apr 6.2 23:25:14 10° NW 23:25:42 10° NW 23:26:09 10° NW visible
